This demonstration page uses our WeatherBlox Daily Observations layout. Learn more.

Left ArrowRight Arrow

Hourly Observations for December 30, 2019

Temp ( °F °C ) Dew Point ( °F °C ) Humidity (%) Winds ( mph kmh ) Pressure ( in mb ) Visibility ( mi km ) Precip ( " mm )
12:44 am 00:44 Mostly Cloudy with Light Snow 27 -3 21 -6 80 80 NW 23 37 29.84 1010 9 14 0.00 0.00
12:56 am 00:56 Windy with Snow Likely 26 -3.3 21 -6.1 81 81 NW 30 48 29.77 1008 6 10 0.00 0.00
1:41 am 01:41 Partly Cloudy with Scattered Snow Showers 27 -3 21 -6 80 80 NW 28 44 29.84 1010 7 11 0.00 0.00
1:56 am 01:56 Windy with Snow Likely 26 -3.3 20 -6.7 78 78 NW 23 37 29.79 1009 6 10 0.00 0.00
2:22 am 02:22 Mostly Cloudy with Light Snow 27 -3 21 -6 80 80 NW 29 46 29.85 1011 8 13 0.00 0.00
2:56 am 02:56 Mostly Cloudy with Light Snow 26 -3.3 21 -6.1 81 81 NW 24 39 29.81 1010 7 11 0.00 0.00
3:56 am 03:56 Cloudy 26 -3.3 20 -6.7 78 78 NW 22 35 29.83 1010 10 16 0.00 0.00
4:56 am 04:56 Windy with Snow Likely 26 -3.3 21 -6.1 81 81 NW 25 41 29.84 1011 9 14 0.00 0.00
5:12 am 05:12 Windy with Snow Likely 27 -3 21 -6 80 80 NW 24 39 29.89 1012 8 13 0.00 0.00
5:56 am 05:56 Partly Cloudy 25 -3.9 19 -7.2 78 78 NW 23 37 29.85 1011 9 14 0.00 0.00
6:56 am 06:56 Partly Cloudy with Isolated Snow Showers 25 -3.9 19 -7.2 78 78 NW 23 37 29.88 1012 9 14 0.00 0.00
7:56 am 07:56 Clear 24 -4.4 18 -7.8 77 77 NW 23 37 29.91 1013 10 16 0.00 0.00
8:56 am 08:56 Sunny 26 -3.3 19 -7.2 75 75 NW 21 33 29.93 1014 10 16 0.00 0.00
9:56 am 09:56 Sunny 27 -2.8 19 -7.2 72 72 NW 23 37 29.97 1015 10 16 0.00 0.00
10:56 am 10:56 Sunny 29 -1.7 20 -6.7 69 69 NW 21 33 29.98 1015 10 16 0.00 0.00
11:56 am 11:56 Sunny 30 -1.1 22 -5.6 72 72 NW 24 39 29.97 1015 10 16 0.00 0.00
12:56 pm 12:56 Sunny 31 -0.6 22 -5.6 69 69 NW 25 41 29.98 1015 10 16 0.00 0.00
1:04 pm 13:04 Mostly Sunny 30 -1 21 -6 69 69 NW 23 37 30.02 1017 7 11 0.00 0.00
1:56 pm 13:56 Sunny 32 0 21 -6.1 64 64 NW 20 31 29.98 1015 10 16 0.00 0.00
2:56 pm 14:56 Sunny 32 0 20 -6.7 61 61 WNW 26 43 29.98 1015 10 16 0.00 0.00
3:56 pm 15:56 Sunny 32 0 21 -6.1 64 64 NW 23 37 30.02 1017 10 16 0.00 0.00
4:56 pm 16:56 Sunny 29 -1.7 18 -7.8 63 63 WNW 20 31 30.05 1018 10 16 0.00 0.00
5:56 pm 17:56 Clear 27 -2.8 17 -8.3 66 66 NW 14 22 30.06 1018 10 16 0.00 0.00
6:56 pm 18:56 Clear 25 -3.9 17 -8.3 72 72 WNW 18 30 30.07 1018 10 16 0.00 0.00
7:56 pm 19:56 Clear 25 -3.9 15 -9.4 66 66 WNW 18 30 30.07 1018 10 16 0.00 0.00
8:56 pm 20:56 Clear 25 -3.9 15 -9.4 66 66 W 13 20 30.08 1019 10 16 0.00 0.00
9:56 pm 21:56 Clear 23 -5 14 -10 68 68 W 14 22 30.08 1019 10 16 0.00 0.00
10:56 pm 22:56 Clear 25 -3.9 15 -9.4 66 66 W 17 28 30.07 1018 10 16 0.00 0.00
11:56 pm 23:56 Clear 25 -3.9 15 -9.4 66 66 WNW 18 30 30.06 1018 10 16 0.00 0.00

Powered by AerisWeather